TimeMST,TemperatureF,Dew PointF,Humidity,Sea Level PressureIn,VisibilityMPH,Wind Direction,Wind SpeedMPH,Gust SpeedMPH,PrecipitationIn,Events,Conditions,WindDirDegrees,DateUTC
12:15 AM,30.2,30.2,100,30.17,0.5,Calm,Calm,-,N/A,,Overcast,0,2013-01-26 07:15:00
12:35 AM,30.2,30.2,100,30.17,0.5,Calm,Calm,-,N/A,,Overcast,0,2013-01-26 07:35:00
12:55 AM,30.2,30.2,100,30.17,0.8,Calm,Calm,-,N/A,,Mostly Cloudy,0,2013-01-26 07:55:00
1:15 AM,30.2,30.2,100,30.16,0.2,Calm,Calm,-,N/A,,Overcast,0,2013-01-26 08:15:00
1:35 AM,30.2,30.2,100,30.15,0.2,Calm,Calm,-,N/A,,Overcast,0,2013-01-26 08:35:00
1:55 AM,30.2,30.2,100,30.14,0.8,Calm,Calm,-,N/A,,Overcast,0,2013-01-26 08:55:00
2:15 AM,30.2,30.2,100,30.14,1.0,Calm,Calm,-,N/A,,Overcast,0,2013-01-26 09:15:00
2:35 AM,32.0,30.2,93,30.13,0.8,Calm,Calm,-,N/A,,Mostly Cloudy,0,2013-01-26 09:35:00
2:55 AM,32.0,32.0,100,30.13,0.8,Calm,Calm,-,N/A,,Overcast,0,2013-01-26 09:55:00
3:15 AM,32.0,32.0,100,30.11,1.2,Calm,Calm,-,N/A,,Overcast,0,2013-01-26 10:15:00
3:55 AM,30.2,30.2,100,30.09,0.5,Calm,Calm,-,N/A,,Overcast,0,2013-01-26 10:55:00
4:15 AM,30.2,30.2,100,30.09,0.5,Calm,Calm,-,N/A,,Overcast,0,2013-01-26 11:15:00
4:35 AM,30.2,30.2,100,30.07,0.5,Calm,Calm,-,N/A,,Overcast,0,2013-01-26 11:35:00
4:55 AM,30.2,30.2,100,30.06,0.2,Calm,Calm,-,N/A,,Overcast,0,2013-01-26 11:55:00
5:15 AM,30.2,30.2,100,30.05,0.2,Calm,Calm,-,N/A,,Overcast,0,2013-01-26 12:15:00
5:35 AM,-9999,-9999,N/A,30.05,0.2,Calm,Calm,-,N/A,,Overcast,0,2013-01-26 12:35:00
5:55 AM,-9999,-9999,N/A,30.04,0.2,West,4.6,-,N/A,,Overcast,260,2013-01-26 12:55:00
6:15 AM,-9999,-9999,N/A,30.04,0.2,West,3.5,-,N/A,,Overcast,260,2013-01-26 13:15:00
6:35 AM,-9999,-9999,N/A,30.05,0.2,Calm,Calm,-,N/A,,Overcast,0,2013-01-26 13:35:00
6:51 AM,-9999,-9999,N/A,30.04,0.1,Calm,Calm,-,N/A,,Overcast,0,2013-01-26 13:51:00
6:55 AM,-9999,-9999,N/A,30.04,0.2,Calm,Calm,-,N/A,,Overcast,0,2013-01-26 13:55:00
7:51 AM,-9999,-9999,N/A,30.03,0.1,Calm,Calm,-,N/A,Fog,Fog,0,2013-01-26 14:51:00
8:58 AM,-9999,-9999,N/A,30.02,0.1,Calm,Calm,-,N/A,Fog,Fog,0,2013-01-26 15:58:00
9:50 AM,-9999,-9999,N/A,30.00,0.4,WNW,4.6,-,N/A,Fog,Fog,300,2013-01-26 16:50:00
10:50 AM,-9999,-9999,N/A,30.00,0.1,West,4.6,-,N/A,Fog,Fog,270,2013-01-26 17:50:00
11:50 AM,-9999,-9999,N/A,29.99,1.0,Calm,Calm,-,N/A,,Mostly Cloudy,0,2013-01-26 18:50:00
12:27 PM,-9999,-9999,N/A,29.98,2.5,Calm,Calm,-,N/A,,Overcast,0,2013-01-26 19:27:00
12:48 PM,32.0,32.0,100,29.96,2.5,Calm,Calm,-,N/A,,Overcast,0,2013-01-26 19:48:00
1:52 PM,32.0,32.0,100,29.92,2.5,Calm,Calm,-,N/A,,Overcast,0,2013-01-26 20:52:00
2:47 PM,32.0,32.0,100,29.90,3.0,Calm,Calm,-,N/A,,Overcast,0,2013-01-26 21:47:00
3:47 PM,33.8,30.2,87,29.89,3.0,Calm,Calm,-,N/A,,Overcast,0,2013-01-26 22:47:00
5:47 PM,33.8,32.0,93,29.87,1.2,SSE,4.6,-,N/A,,Overcast,150,2013-01-27 00:47:00
6:55 PM,32.0,32.0,100,29.89,2.0,North,5.8,-,N/A,,Overcast,10,2013-01-27 01:55:00
7:50 PM,32.0,30.2,93,29.88,2.0,SW,4.6,-,N/A,,Overcast,230,2013-01-27 02:50:00
8:47 PM,32.0,32.0,100,29.89,2.0,SW,3.5,-,N/A,,Overcast,230,2013-01-27 03:47:00
9:15 PM,32.0,32.0,100,29.89,2.0,West,3.5,-,N/A,,Overcast,280,2013-01-27 04:15:00
9:35 PM,32.0,30.2,93,29.89,1.5,North,3.5,-,N/A,,Scattered Clouds,360,2013-01-27 04:35:00
9:55 PM,32.0,32.0,100,29.89,1.8,Calm,Calm,-,N/A,,Mostly Cloudy,0,2013-01-27 04:55:00
10:15 PM,32.0,32.0,100,29.89,2.0,Calm,Calm,-,N/A,,Overcast,0,2013-01-27 05:15:00
10:35 PM,33.8,32.0,93,29.89,2.0,Calm,Calm,-,N/A,,Overcast,0,2013-01-27 05:35:00
10:55 PM,33.8,33.8,100,29.89,2.0,Calm,Calm,-,N/A,,Overcast,0,2013-01-27 05:55:00
11:15 PM,33.8,32.0,93,29.89,2.0,Calm,Calm,-,N/A,,Overcast,0,2013-01-27 06:15:00
11:35 PM,33.8,33.8,100,29.89,1.8,Calm,Calm,-,N/A,,Overcast,0,2013-01-27 06:35:00
11:55 PM,33.8,33.8,100,29.89,1.5,Calm,Calm,-,N/A,,Overcast,0,2013-01-27 06:55:00